1506045600.4,48504,13.06,73450.0,-4.15,-5.47,-5.47,0,*5D
1506045601.64,48505,13.06,73450.0,-4.15,-5.55,-5.47,0,*5F
1506045602.87,48506,13.06,73448.3,-4.15,-5.47,-5.55,0,*5C
1506045604.11,48507,13.06,73450.3,-4.15,-5.55,-5.47,0,*5D
1506045605.35,48508,13.06,73450.5,-4.15,-5.55,-5.55,0,*51
1506045606.58,48509,13.06,73452.3,-4.15,-5.47,-5.47,0,*50
1506045607.82,48510,13.06,73448.8,-4.15,-5.55,-5.55,0,*58
1506045609.08,48511,13.06,73450.8,-4.19,-5.51,-5.61,0,*56
1506045610.32,48512,13.06,73452.3,-4.17,-5.61,-5.55,0,*5F
1506045611.55,48513,13.06,73450.0,-4.17,-5.47,-5.61,0,*5D
1506045612.77,48514,13.06,73454.0,-4.17,-5.47,-5.55,0,*5D
1506045614.05,48515,13.06,73452.8,-4.19,-5.61,-5.61,0,*51
1506045615.27,48516,13.06,73454.8,-4.17,-5.55,-5.55,0,*5C
1506045616.5,48517,13.06,73452.0,-4.19,-5.51,-5.51,0,*53
1506045617.78,48518,13.13,73454.5,-4.19,-5.61,-5.61,0,*5C
1506045618.99,48519,13.06,73448.8,-4.17,-5.55,-5.47,0,*50
1506045620.23,48520,13.06,73450.0,-4.19,-5.51,-5.51,0,*57
1506045621.44,48521,13.06,73448.8,-4.17,-5.55,-5.47,0,*5B
1506045622.7,48522,13.06,73448.8,-4.19,-5.51,-5.61,0,*56
1506045623.96,48523,13.06,73450.3,-4.19,-5.51,-5.61,0,*57
1506045625.17,48524,13.06,73450.5,-4.17,-5.47,-5.47,0,*5D
1506045626.45,48525,13.06,73452.3,-4.19,-5.61,-5.61,0,*52
1506045627.71,48526,13.06,73450.8,-4.19,-5.65,-5.51,0,*56
1506045628.96,48527,13.06,73452.0,-4.19,-5.61,-5.51,0,*53
1506045630.18,48528,13.06,73454.8,-4.17,-5.47,-5.55,0,*52
1506045631.39,48529,13.06,73452.5,-4.17,-5.47,-5.55,0,*53
1506045632.65,48530,13.06,73450.8,-4.19,-5.51,-5.61,0,*55
1506045633.9,48531,13.06,73454.0,-4.19,-5.61,-5.51,0,*54
1506045635.14,48532,13.06,73452.5,-4.19,-5.51,-5.51,0,*54
1506045636.38,48533,13.06,73448.3,-4.19,-5.55,-5.55,0,*55
1506045637.6,48534,13.06,73450.3,-4.17,-5.55,-5.55,0,*5C
1506045638.81,48535,13.06,73448.8,-4.17,-5.55,-5.47,0,*5E
1506045640.06,48536,13.06,73452.0,-4.19,-5.61,-5.51,0,*53
1506045641.29,48537,13.06,73454.8,-4.17,-5.61,-5.47,0,*5B
1506045642.53,48538,13.06,73452.0,-4.19,-5.51,-5.51,0,*5E
1506045643.79,48539,13.06,73448.8,-4.19,-5.51,-5.61,0,*5C
1506045645.02,48540,13.06,73454.0,-4.19,-5.47,-5.51,0,*56
1506045646.25,48541,13.06,73452.0,-4.19,-5.51,-5.51,0,*50
1506045647.49,48542,13.06,73450.5,-4.19,-5.51,-5.51,0,*53
1506045648.74,48543,13.06,73450.0,-4.19,-5.61,-5.47,0,*56
1506045649.97,48544,13.06,73452.5,-4.19,-5.51,-5.47,0,*52
1506045651.23,48545,13.06,73454.3,-4.19,-5.51,-5.61,0,*57
1506045652.47,48546,13.06,73454.0,-4.19,-5.51,-5.51,0,*57
1506045653.72,48547,13.06,73448.0,-4.19,-5.61,-5.51,0,*55
1506045654.95,48548,13.06,73456.3,-4.19,-5.51,-5.47,0,*5E
1506045656.16,48549,13.06,73448.8,-4.17,-5.47,-5.47,0,*56
1506045657.44,48550,13.06,73452.8,-4.19,-5.61,-5.61,0,*50
1506045658.67,48551,13.06,73452.3,-4.19,-5.51,-5.51,0,*51
1506045659.91,48552,13.06,73450.8,-4.19,-5.51,-5.51,0,*52
1506045661.14,48553,13.06,73452.8,-4.19,-5.51,-5.51,0,*53
1506045662.38,48554,13.06,73454.3,-4.19,-5.51,-5.51,0,*54
1506045663.61,48555,13.06,73448.5,-4.19,-5.51,-5.51,0,*55
1506045664.86,48556,13.06,73452.8,-4.19,-5.61,-5.47,0,*52
1506045666.1,48557,13.06,73452.3,-4.21,-5.55,-5.65,0,*5F
1506045667.36,48558,13.06,73452.8,-4.23,-5.65,-5.55,0,*52
1506045668.6,48559,13.06,73452.3,-4.21,-5.65,-5.55,0,*51
1506045669.86,48560,13.06,73450.8,-4.23,-5.55,-5.65,0,*59
1506045671.11,48561,13.06,73454.5,-4.21,-5.65,-5.65,0,*59
1506045672.33,48562,13.06,73448.5,-4.21,-5.55,-5.55,0,*5A
1506045673.55,48563,13.06,73452.3,-4.21,-5.55,-5.55,0,*5B
1506045674.77,48564,13.06,73454.3,-4.21,-5.55,-5.55,0,*5C
1506045676.0,48565,13.06,73452.5,-4.23,-5.51,-5.55,0,*5B
1506045677.23,48566,13.06,73452.3,-4.23,-5.51,-5.43,0,*5F
1506045678.44,48567,13.06,73454.8,-4.21,-5.51,-5.51,0,*5F
1506045679.67,48568,13.06,73454.8,-4.23,-5.51,-5.51,0,*52
1506045680.88,48569,13.06,73452.8,-4.21,-5.51,-5.51,0,*51
1506045682.12,48570,13.06,73452.5,-4.23,-5.51,-5.51,0,*5B
1506045683.33,48571,13.06,73452.0,-4.21,-5.51,-5.51,0,*58
1506045684.53,48572,13.06,73456.8,-4.21,-5.43,-5.51,0,*58
1506045685.76,48573,13.06,73452.3,-4.23,-5.43,-5.51,0,*5B
1506045686.99,48574,13.06,73450.8,-4.19,-5.51,-5.47,0,*51
1506045688.2,48575,13.06,73452.5,-4.21,-5.51,-5.51,0,*5C
1506045689.42,48576,13.06,73454.8,-4.21,-5.55,-5.55,0,*5F
1506045690.67,48577,13.06,73454.0,-4.23,-5.51,-5.65,0,*5B
1506045691.89,48578,13.06,73454.3,-4.21,-5.55,-5.55,0,*51
1506045693.13,48579,13.06,73452.3,-4.21,-5.55,-5.65,0,*53
1506045694.35,48580,13.06,73454.8,-4.21,-5.55,-5.55,0,*56
1506045695.58,48581,13.06,73454.5,-4.23,-5.51,-5.55,0,*51
1506045696.8,48582,13.06,73452.8,-4.21,-5.51,-5.55,0,*50
1506045698.01,48583,13.06,73454.3,-4.21,-5.51,-5.55,0,*51
1506045699.23,48584,13.06,73452.0,-4.21,-5.51,-5.55,0,*56
1506045700.48,48585,13.06,73454.0,-4.23,-5.55,-5.65,0,*52
1506045701.76,48586,13.06,73454.0,-4.23,-5.65,-5.65,0,*52
1506045703.04,48587,13.06,73454.8,-4.23,-5.65,-5.65,0,*53
1506045704.28,48588,13.06,73458.0,-4.21,-5.55,-5.65,0,*5D
1506045705.53,48589,13.06,73454.8,-4.23,-5.65,-5.55,0,*5E
1506045706.79,48590,13.06,73452.5,-4.23,-5.65,-5.55,0,*56
1506045708.05,48591,13.06,73452.8,-4.23,-5.65,-5.55,0,*57
1506045709.31,48592,13.06,73452.5,-4.23,-5.55,-5.65,0,*54
1506045710.55,48593,13.06,73454.3,-4.23,-5.55,-5.55,0,*56
1506045711.79,48594,13.06,73454.5,-4.23,-5.55,-5.55,0,*51
1506045713.04,48595,13.06,73452.0,-4.23,-5.55,-5.65,0,*53
1506045714.3,48596,13.06,73450.5,-4.23,-5.55,-5.65,0,*50
1506045715.54,48597,13.06,73454.5,-4.23,-5.55,-5.55,0,*52
1506045716.8,48598,13.06,73454.3,-4.23,-5.55,-5.65,0,*5E
1506045718.08,48599,13.06,73454.0,-4.23,-5.65,-5.69,0,*50
1506045719.34,48600,13.13,73456.0,-4.25,-5.69,-5.61,0,*51
1506045720.59,48601,13.06,73452.8,-4.23,-5.65,-5.55,0,*5D
1506045721.85,48602,13.06,73454.5,-4.23,-5.65,-5.55,0,*5E
1506045723.11,48603,13.06,73454.5,-4.23,-5.55,-5.65,0,*5F
1506045724.39,48604,13.06,73454.0,-4.23,-5.65,-5.65,0,*5B
1506045725.65,48605,13.06,73454.0,-4.23,-5.65,-5.55,0,*59
1506045726.89,48606,13.06,73454.5,-4.23,-5.55,-5.55,0,*59
1506045728.13,48607,13.06,73450.8,-4.23,-5.55,-5.55,0,*58
1506045729.36,48608,13.06,73448.3,-4.25,-5.47,-5.61,0,*55
1506045730.6,48609,13.06,73454.5,-4.27,-5.47,-5.55,0,*51
1506045731.82,48610,13.06,73456.0,-4.27,-5.47,-5.47,0,*5A
1506045733.05,48611,13.06,73450.0,-4.23,-5.39,-5.43,0,*52
1506045734.3,48612,13.06,73452.8,-4.23,-5.31,-5.39,0,*54
1506045735.56,48613,13.06,73454.8,-4.23,-5.31,-5.39,0,*55
1506045736.76,48614,13.06,73452.0,-4.25,-5.43,-5.35,0,*5D
1506045737.96,48615,13.06,73454.8,-4.25,-5.35,-5.43,0,*5C
1506045739.15,48616,13.06,73454.5,-4.25,-5.43,-5.43,0,*5E
1506045740.35,48617,13.06,73454.3,-4.25,-5.43,-5.43,0,*5F
1506045741.55,48618,13.06,73456.3,-4.25,-5.35,-5.43,0,*51
1506045742.78,48619,13.06,73454.8,-4.27,-5.43,-5.43,0,*53
1506045743.98,48620,13.06,73452.8,-4.25,-5.35,-5.35,0,*5B
1506045745.2,48621,13.06,73454.0,-4.25,-5.43,-5.31,0,*5F
1506045746.47,48622,13.06,73452.8,-4.21,-5.31,-5.27,0,*5A
1506045747.75,48623,13.06,73452.5,-4.23,-5.19,-5.27,0,*53
1506045749.01,48624,13.06,73454.8,-4.21,-5.19,-5.27,0,*56
1506045750.27,48625,13.06,73452.5,-4.21,-5.19,-5.19,0,*5A
1506045751.53,48626,13.06,73452.8,-4.21,-5.19,-5.19,0,*59
1506045752.81,48627,13.06,73454.5,-4.23,-5.15,-5.19,0,*56
1506045754.08,48628,13.06,73450.8,-4.21,-5.15,-5.19,0,*5B
1506045755.34,48629,13.06,73454.3,-4.21,-5.15,-5.07,0,*55
1506045756.62,48630,13.06,73454.5,-4.23,-5.07,-5.15,0,*5F
1506045757.89,48631,13.13,73458.3,-4.21,-5.07,-5.07,0,*5F
1506045759.15,48632,13.06,73448.8,-4.21,-5.15,-5.07,0,*5F
1506045760.42,48633,13.06,73452.3,-4.21,-5.07,-5.07,0,*5D
1506045761.69,48634,13.06,73454.0,-4.21,-5.07,-5.07,0,*5A
1506045762.95,48635,13.06,73450.3,-4.21,-5.07,-5.07,0,*5B
1506045764.24,48636,13.06,73452.8,-4.19,-5.03,-5.11,0,*50
1506045765.47,48637,13.06,73454.5,-4.17,-4.99,-5.03,0,*5E
1506045766.75,48638,13.06,73454.0,-4.19,-5.03,-5.03,0,*5D
1506045768.04,48639,13.06,73454.8,-4.19,-5.03,-5.03,0,*5C
1506045769.24,48640,13.06,73452.3,-4.17,-4.99,-4.99,0,*5C
1506045770.43,48641,13.06,73454.5,-4.17,-4.99,-4.99,0,*5D
1506045771.67,48642,13.06,73450.3,-4.17,-4.99,-5.07,0,*58
1506045772.86,48643,13.06,73452.3,-4.17,-4.99,-4.99,0,*5F
1506045774.06,48644,13.06,73452.5,-4.17,-4.99,-4.99,0,*58
1506045775.26,48645,13.06,73454.5,-4.17,-4.99,-4.99,0,*59
1506045776.52,48646,13.06,73454.8,-4.17,-5.07,-5.07,0,*5A
1506045777.79,48647,13.06,73450.3,-4.17,-5.07,-5.07,0,*5B
1506045779.05,48648,13.06,73454.3,-4.17,-5.07,-5.11,0,*53
1506045780.31,48649,13.06,73454.3,-4.17,-5.07,-5.19,0,*5A
1506045781.57,48650,13.06,73452.0,-4.15,-4.99,-5.07,0,*59
1506045782.85,48651,13.06,73452.3,-4.15,-5.11,-5.07,0,*59
1506045784.1,48652,13.06,73454.8,-4.15,-4.99,-5.07,0,*5B
1506045785.36,48653,13.06,73448.0,-4.15,-4.99,-5.07,0,*5A
1506045786.64,48654,13.06,73452.5,-4.15,-5.07,-5.11,0,*5C
1506045787.91,48655,13.06,73454.5,-4.13,-5.15,-5.03,0,*5B
1506045789.17,48656,13.06,73452.5,-4.13,-5.07,-5.15,0,*5C
1506045790.45,48657,13.06,73454.8,-4.15,-5.11,-5.11,0,*58
1506045791.73,48658,13.06,73454.3,-4.15,-5.11,-5.19,0,*5F
1506045793.01,48659,13.06,73452.5,-4.15,-5.11,-5.19,0,*5E
1506045794.29,48660,13.06,73454.0,-4.15,-5.19,-5.19,0,*5C
1506045795.57,48661,13.06,73454.0,-4.15,-5.19,-5.19,0,*5D
1506045796.86,48662,13.06,73454.5,-4.15,-5.23,-5.19,0,*57
1506045798.15,48663,13.06,73448.5,-4.15,-5.23,-5.23,0,*5F
1506045799.44,48664,13.06,73452.3,-4.15,-5.23,-5.23,0,*58
1506045800.73,48665,13.06,73454.5,-4.15,-5.19,-5.23,0,*50
1506045801.99,48666,13.06,73450.8,-4.13,-5.19,-5.27,0,*51
1506045803.28,48667,13.06,73452.5,-4.15,-5.23,-5.23,0,*5B
1506045804.54,48668,13.06,73454.5,-4.13,-5.19,-5.27,0,*5F
1506045805.83,48669,13.06,73450.3,-4.15,-5.23,-5.23,0,*55
1506045807.12,48670,13.06,73452.8,-4.15,-5.31,-5.31,0,*5D
1506045808.4,48671,13.06,73454.8,-4.15,-5.23,-5.23,0,*5C
1506045809.69,48672,13.06,73454.3,-4.15,-5.31,-5.23,0,*5C
1506045810.98,48673,13.06,73452.3,-4.15,-5.31,-5.31,0,*5E
1506045812.24,48674,13.06,73448.5,-4.15,-5.31,-5.35,0,*5D
1506045813.49,48675,13.06,73452.0,-4.15,-5.23,-5.35,0,*5F
1506045814.78,48676,13.06,73450.5,-4.15,-5.31,-5.31,0,*5B
1506045816.06,48677,13.06,73452.3,-4.15,-5.31,-5.31,0,*5A
1506045817.35,48678,13.06,73452.5,-4.15,-5.31,-5.31,0,*55
1506045818.61,48679,13.06,73454.5,-4.17,-5.31,-5.31,0,*56
1506045819.88,48680,13.06,73450.5,-4.17,-5.31,-5.23,0,*53
1506045821.11,48681,13.06,73452.0,-4.17,-5.35,-5.31,0,*55
1506045822.37,48682,13.06,73452.5,-4.17,-5.31,-5.31,0,*52
1506045823.64,48683,13.06,73454.5,-4.17,-5.31,-5.31,0,*53
1506045824.9,48684,13.06,73452.3,-4.17,-5.31,-5.31,0,*54
1506045826.13,48685,13.06,73452.0,-4.17,-5.31,-5.35,0,*51
1506045827.39,48686,13.06,73450.0,-4.17,-5.31,-5.31,0,*56
1506045828.62,48687,13.06,73452.5,-4.19,-5.35,-5.39,0,*55
1506045829.82,48688,13.06,73452.0,-4.17,-5.43,-5.35,0,*59
1506045831.03,48689,13.06,73454.8,-4.17,-5.35,-5.35,0,*59
1506045832.23,48690,13.06,73454.0,-4.17,-5.35,-5.35,0,*51
1506045833.49,48691,13.06,73448.5,-4.17,-5.31,-5.31,0,*50
1506045834.72,48692,13.06,73448.8,-4.19,-5.35,-5.35,0,*5D
1506045835.95,48693,13.06,73454.0,-4.17,-5.31,-5.35,0,*56
1506045837.18,48694,13.06,73448.8,-4.17,-5.31,-5.35,0,*51
1506045838.41,48695,13.06,73448.8,-4.19,-5.35,-5.35,0,*5A
1506045839.64,48696,13.06,73448.5,-4.19,-5.35,-5.39,0,*55
1506045840.84,48697,13.06,73452.5,-4.17,-5.35,-5.35,0,*56
1506045842.04,48698,13.06,73452.5,-4.17,-5.43,-5.35,0,*58
1506045843.28,48699,13.06,73454.3,-4.17,-5.35,-5.23,0,*5F
1506045844.51,48700,13.06,73452.0,-4.19,-5.35,-5.39,0,*5B
1506045845.76,48701,13.06,73452.3,-4.19,-5.27,-5.35,0,*55
1506045846.99,48702,13.06,73448.0,-4.17,-5.31,-5.35,0,*5F
1506045848.26,48703,13.06,73452.8,-4.17,-5.23,-5.31,0,*59
1506045849.52,48704,13.06,73452.5,-4.17,-5.31,-5.31,0,*5D
1506045850.78,48705,13.06,73450.0,-4.17,-5.31,-5.23,0,*5F
1506045852.01,48706,13.06,73452.3,-4.19,-5.35,-5.35,0,*51
1506045853.28,48707,13.06,73450.0,-4.17,-5.31,-5.23,0,*5D
1506045854.5,48708,13.06,73454.3,-4.19,-5.35,-5.35,0,*5F
1506045855.77,48709,13.06,73452.8,-4.17,-5.23,-5.31,0,*53
1506045857.03,48710,13.06,73454.0,-4.17,-5.31,-5.23,0,*5B
1506045858.29,48711,13.06,73450.3,-4.17,-5.31,-5.31,0,*59
1506045859.52,48712,13.06,73452.8,-4.19,-5.35,-5.35,0,*54
1506045860.75,48713,13.06,73452.3,-4.19,-5.35,-5.35,0,*55
1506045862.01,48714,13.06,73454.0,-4.17,-5.23,-5.31,0,*5F
1506045863.27,48715,13.06,73452.3,-4.17,-5.31,-5.31,0,*5D
1506045864.54,48716,13.06,73452.3,-4.17,-5.23,-5.23,0,*5E
1506045865.79,48717,13.06,73452.3,-4.19,-5.27,-5.35,0,*52
1506045867.05,48718,13.06,73450.3,-4.17,-5.31,-5.31,0,*50
1506045868.32,48719,13.06,73454.0,-4.17,-5.23,-5.23,0,*51
1506045869.59,48720,13.06,73448.5,-4.17,-5.31,-5.23,0,*58
1506045870.85,48721,13.06,73454.3,-4.17,-5.31,-5.31,0,*5A
1506045872.11,48722,13.06,73452.0,-4.17,-5.23,-5.23,0,*59
1506045873.38,48723,13.06,73452.0,-4.17,-5.23,-5.23,0,*58
1506045874.65,48724,13.06,73452.5,-4.17,-5.23,-5.23,0,*5F
1506045875.91,48725,13.06,73452.5,-4.17,-5.23,-5.31,0,*5D
1506045877.17,48726,13.06,73450.8,-4.17,-5.31,-5.23,0,*5E
1506045878.44,48727,13.06,73452.8,-4.17,-5.31,-5.31,0,*5C
1506045879.7,48728,13.06,73450.3,-4.17,-5.31,-5.31,0,*53
1506045880.95,48729,13.06,73452.8,-4.19,-5.27,-5.35,0,*5F
1506045882.22,48730,13.06,73450.8,-4.17,-5.23,-5.31,0,*59
1506045883.48,48731,13.06,73454.5,-4.17,-5.23,-5.23,0,*5B
1506045884.68,48732,13.06,73450.0,-4.17,-5.35,-5.35,0,*58
1506045885.94,48733,13.06,73450.5,-4.19,-5.35,-5.27,0,*54
1506045887.23,48734,13.06,73450.8,-4.19,-5.27,-5.23,0,*54
1506045888.49,48735,13.06,73450.0,-4.17,-5.23,-5.23,0,*5F
1506045889.78,48736,13.06,73450.8,-4.19,-5.27,-5.27,0,*52
1506045891.04,48737,13.06,73454.5,-4.17,-5.31,-5.23,0,*5E
1506045892.3,48738,13.06,73450.8,-4.19,-5.35,-5.27,0,*5F
1506045893.57,48739,13.06,73454.8,-4.17,-5.23,-5.23,0,*53
1506045894.84,48740,13.06,73454.3,-4.17,-5.23,-5.23,0,*5D
1506045896.1,48741,13.06,73450.5,-4.17,-5.31,-5.31,0,*5C
1506045897.36,48742,13.06,73452.8,-4.17,-5.27,-5.23,0,*5B
1506045898.64,48743,13.06,73454.3,-4.19,-5.27,-5.27,0,*50
1506045899.87,48744,13.06,73450.0,-4.19,-5.35,-5.35,0,*57
1506045901.1,48745,13.06,73454.3,-4.19,-5.35,-5.35,0,*56
1506045902.36,48746,13.06,73454.3,-4.17,-5.31,-5.31,0,*5B
1506045903.62,48747,13.06,73454.0,-4.17,-5.23,-5.31,0,*59
1506045904.88,48748,13.06,73454.5,-4.19,-5.27,-5.35,0,*58
1506045906.14,48749,13.06,73450.5,-4.19,-5.35,-5.27,0,*59
1506045907.4,48750,13.06,73452.3,-4.17,-5.31,-5.31,0,*5C
1506045908.66,48751,13.06,73452.0,-4.17,-5.27,-5.31,0,*5A
1506045909.92,48752,13.06,73454.0,-4.17,-5.23,-5.23,0,*5E
1506045911.18,48753,13.06,73452.3,-4.17,-5.19,-5.27,0,*52
1506045912.45,48754,13.06,73454.8,-4.17,-5.19,-5.23,0,*51
1506045913.73,48755,13.06,73452.8,-4.19,-5.19,-5.19,0,*57
1506045915.01,48756,13.06,73448.5,-4.19,-5.15,-5.15,0,*54
1506045916.27,48757,13.06,73450.5,-4.17,-5.11,-5.19,0,*53
1506045917.53,48758,13.06,73450.0,-4.17,-5.11,-5.19,0,*5C
1506045918.79,48759,13.06,73452.3,-4.17,-5.19,-5.19,0,*55
1506045920.05,48760,13.06,73454.0,-4.17,-5.19,-5.23,0,*56
1506045921.3,48761,13.06,73450.8,-4.17,-5.11,-5.19,0,*56
1506045922.57,48762,13.06,73454.3,-4.17,-5.19,-5.23,0,*54
1506045923.85,48763,13.06,73450.0,-4.19,-5.23,-5.27,0,*56
1506045925.12,48764,13.06,73452.5,-4.17,-5.23,-5.23,0,*5B
1506045926.39,48765,13.06,73454.5,-4.17,-5.31,-5.23,0,*59
1506045927.67,48766,13.06,73452.0,-4.19,-5.27,-5.27,0,*57
1506045928.94,48767,13.06,73450.5,-4.17,-5.23,-5.23,0,*58
1506045930.2,48768,13.06,73450.8,-4.17,-5.23,-5.23,0,*57
1506045931.46,48769,13.06,73454.3,-4.17,-5.23,-5.31,0,*55
1506045932.73,48770,13.06,73452.8,-4.17,-5.23,-5.23,0,*5E
1506045934.0,48771,13.06,73452.8,-4.17,-5.23,-5.23,0,*5F
1506045935.26,48772,13.06,73452.5,-4.19,-5.35,-5.23,0,*55
1506045936.52,48773,13.06,73454.8,-4.17,-5.23,-5.19,0,*54
1506045937.78,48774,13.06,73452.8,-4.17,-5.31,-5.19,0,*50
1506045939.05,48775,13.06,73454.5,-4.17,-5.23,-5.23,0,*5B
1506045940.33,48776,13.06,73450.5,-4.19,-5.27,-5.31,0,*51
1506045941.58,48777,13.06,73450.8,-4.19,-5.27,-5.35,0,*54
1506045942.85,48778,13.06,73450.5,-4.17,-5.23,-5.23,0,*56
1506045944.11,48779,13.06,73452.5,-4.19,-5.35,-5.27,0,*5A
1506045945.37,48780,13.06,73450.8,-4.17,-5.31,-5.23,0,*52
1506045946.63,48781,13.06,73454.0,-4.17,-5.31,-5.31,0,*50
1506045947.9,48782,13.06,73450.8,-4.17,-5.23,-5.31,0,*50
1506045949.16,48783,13.06,73448.3,-4.17,-5.31,-5.23,0,*51
1506045950.43,48784,13.06,73454.0,-4.17,-5.23,-5.23,0,*55
1506045951.69,48785,13.06,73452.3,-4.17,-5.23,-5.31,0,*57
1506045952.95,48786,13.06,73452.5,-4.17,-5.23,-5.31,0,*54
1506045954.22,48787,13.06,73450.5,-4.17,-5.23,-5.23,0,*56
1506045955.48,48788,13.06,73454.5,-4.17,-5.31,-5.31,0,*59
1506045956.74,48789,13.06,73452.5,-4.17,-5.31,-5.31,0,*58
1506045958.01,48790,13.06,73450.3,-4.17,-5.31,-5.23,0,*53
1506045959.27,48791,13.06,73450.8,-4.17,-5.31,-5.31,0,*51
1506045960.53,48792,13.06,73452.5,-4.17,-5.31,-5.31,0,*52
1506045961.8,48793,13.06,73448.0,-4.17,-5.31,-5.31,0,*53
1506045963.02,48794,13.06,73450.8,-4.19,-5.35,-5.35,0,*5A
1506045964.25,48795,13.06,73448.0,-4.19,-5.35,-5.35,0,*5B
1506045965.52,48796,13.06,73454.0,-4.17,-5.23,-5.23,0,*56
1506045966.78,48797,13.06,73452.8,-4.17,-5.31,-5.31,0,*57
1506045968.01,48798,13.06,73450.8,-4.19,-5.35,-5.35,0,*56
1506045969.27,48799,13.06,73448.0,-4.17,-5.31,-5.31,0,*59
1506045970.53,48800,13.06,73452.5,-4.17,-5.31,-5.31,0,*56
1506045971.77,48801,13.06,73452.5,-4.17,-5.35,-5.23,0,*50
1506045973.03,48802,13.06,73454.0,-4.17,-5.31,-5.31,0,*54
1506045974.26,48803,13.06,73448.5,-4.19,-5.35,-5.39,0,*57
1506045975.52,48804,13.06,73448.0,-4.17,-5.31,-5.31,0,*52
1506045976.77,48805,13.06,73450.0,-4.19,-5.27,-5.35,0,*5E
1506045978.03,48806,13.06,73450.3,-4.19,-5.35,-5.27,0,*5D
1506045979.29,48807,13.06,73452.0,-4.17,-5.27,-5.31,0,*56
1506045980.55,48808,13.06,73452.3,-4.19,-5.35,-5.27,0,*53
1506045981.78,48809,13.06,73452.8,-4.19,-5.35,-5.35,0,*51
1506045983.0,48810,13.06,73452.5,-4.19,-5.35,-5.35,0,*59
1506045984.23,48811,13.06,73452.0,-4.19,-5.39,-5.35,0,*54
1506045985.46,48812,13.06,73452.0,-4.19,-5.39,-5.35,0,*57
1506045986.69,48813,13.06,73454.8,-4.19,-5.39,-5.35,0,*56
1506045987.89,48814,13.06,73450.8,-4.17,-5.35,-5.35,0,*53
1506045989.09,48815,13.06,73454.8,-4.17,-5.35,-5.35,0,*52
1506045990.35,48816,13.06,73452.0,-4.19,-5.27,-5.39,0,*50
1506045991.58,48817,13.06,73452.8,-4.19,-5.35,-5.39,0,*52
1506045992.84,48818,13.06,73454.3,-4.17,-5.31,-5.31,0,*5F
1506045994.1,48819,13.06,73450.3,-4.17,-5.31,-5.31,0,*5E
1506045995.36,48820,13.06,73450.3,-4.17,-5.31,-5.23,0,*57
1506045996.63,48821,13.06,73452.8,-4.17,-5.23,-5.31,0,*56
1506045997.91,48822,13.06,73450.5,-4.19,-5.27,-5.27,0,*58
1506045999.16,48823,13.06,73452.3,-4.19,-5.27,-5.35,0,*5A
1506046000.42,48824,13.06,73452.5,-4.19,-5.35,-5.27,0,*5D
1506046001.71,48825,13.06,73450.3,-4.19,-5.27,-5.27,0,*5F
1506046002.99,48826,13.06,73454.8,-4.19,-5.27,-5.27,0,*5C
1506046004.25,48827,13.06,73454.3,-4.17,-5.31,-5.31,0,*53
1506046005.54,48828,13.06,73458.0,-4.19,-5.27,-5.27,0,*52
1506046006.81,48829,13.06,73452.0,-4.17,-5.31,-5.23,0,*5E
1506046008.07,48830,13.06,73452.3,-4.17,-5.31,-5.31,0,*55
1506046009.29,48831,13.06,73454.3,-4.19,-5.35,-5.35,0,*5A
1506046010.55,48832,13.06,73452.0,-4.19,-5.35,-5.27,0,*5A
1506046011.78,48833,13.06,73452.0,-4.19,-5.35,-5.35,0,*58
1506046013.01,48834,13.06,73454.0,-4.19,-5.39,-5.39,0,*5F
1506046014.24,48835,13.06,73452.3,-4.19,-5.39,-5.47,0,*57
1506046015.46,48836,13.06,73454.5,-4.19,-5.39,-5.39,0,*5D
1506046016.69,48837,13.06,73454.3,-4.19,-5.39,-5.39,0,*5C
1506046017.92,48838,13.06,73452.3,-4.19,-5.47,-5.47,0,*53
1506046019.15,48839,13.06,73452.3,-4.19,-5.51,-5.47,0,*55
1506046020.36,48840,13.06,73452.8,-4.21,-5.43,-5.51,0,*54
1506046021.59,48841,13.06,73454.5,-4.19,-5.47,-5.47,0,*5D
1506046022.82,48842,13.06,73452.3,-4.19,-5.47,-5.47,0,*5E
1506046024.02,48843,13.06,73454.0,-4.21,-5.43,-5.43,0,*54
1506046025.22,48844,13.06,73452.3,-4.21,-5.43,-5.43,0,*53
1506046026.42,48845,13.06,73452.3,-4.21,-5.43,-5.43,0,*52
1506046027.62,48846,13.06,73452.8,-4.21,-5.43,-5.43,0,*51
1506046028.82,48847,13.06,73452.3,-4.21,-5.43,-5.43,0,*50
1506046030.02,48848,13.06,73452.3,-4.21,-5.43,-5.43,0,*5F
1506046031.22,48849,13.06,73452.0,-4.21,-5.43,-5.43,0,*5E
1506046032.44,48850,13.06,73452.0,-4.23,-5.43,-5.43,0,*54
1506046033.65,48851,13.06,73448.0,-4.21,-5.43,-5.51,0,*54
1506046034.85,48852,13.06,73454.3,-4.21,-5.43,-5.43,0,*54
1506046036.05,48853,13.06,73450.5,-4.21,-5.51,-5.43,0,*56
1506046037.26,48854,13.06,73454.3,-4.21,-5.51,-5.43,0,*51
1506046038.49,48855,13.06,73454.3,-4.23,-5.51,-5.51,0,*51
1506046039.72,48856,13.06,73450.8,-4.23,-5.51,-5.43,0,*51
1506046040.95,48857,13.06,73452.8,-4.23,-5.43,-5.51,0,*50
1506046042.18,48858,13.06,73454.8,-4.23,-5.51,-5.43,0,*5F
1506046043.38,48859,13.06,73452.0,-4.21,-5.43,-5.43,0,*5F
1506046044.59,48860,13.06,73454.5,-4.21,-5.51,-5.51,0,*55
1506046045.8,48861,13.06,73452.8,-4.21,-5.51,-5.43,0,*57
1506046047.0,48862,13.06,73454.5,-4.21,-5.43,-5.43,0,*57
1506046048.2,48863,13.06,73454.0,-4.21,-5.43,-5.51,0,*55
1506046049.42,48864,13.06,73452.5,-4.23,-5.43,-5.43,0,*53
1506046050.62,48865,13.06,73452.0,-4.21,-5.43,-5.43,0,*50
1506046051.82,48866,13.06,73454.3,-4.21,-5.43,-5.43,0,*53
1506046053.03,48867,13.06,73452.5,-4.21,-5.39,-5.43,0,*5F
1506046054.26,48868,13.06,73452.8,-4.21,-5.39,-5.31,0,*55
1506046055.49,48869,13.06,73454.0,-4.21,-5.31,-5.39,0,*54
1506046056.72,48870,13.06,73454.5,-4.23,-5.39,-5.39,0,*56
1506046057.98,48871,13.06,73452.5,-4.21,-5.31,-5.31,0,*55
1506046059.24,48872,13.06,73454.5,-4.21,-5.31,-5.31,0,*56
1506046060.51,48873,13.06,73452.8,-4.21,-5.31,-5.31,0,*57
1506046061.76,48874,13.06,73456.3,-4.23,-5.39,-5.31,0,*5A
1506046062.97,48875,13.06,73454.0,-4.21,-5.39,-5.39,0,*51
1506046064.22,48876,13.06,73454.0,-4.23,-5.31,-5.39,0,*58
1506046065.45,48877,13.06,73454.5,-4.21,-5.39,-5.31,0,*5B
1506046066.69,48878,13.06,73452.5,-4.21,-5.31,-5.39,0,*54
1506046067.97,48879,13.06,73456.3,-4.23,-5.31,-5.31,0,*5F
1506046069.22,48880,13.06,73454.0,-4.23,-5.31,-5.39,0,*51
1506046070.49,48881,13.06,73454.5,-4.21,-5.31,-5.31,0,*5A
1506046071.72,48882,13.06,73452.3,-4.21,-5.31,-5.39,0,*51
1506046072.95,48883,13.06,73454.8,-4.23,-5.39,-5.39,0,*5A
1506046074.18,48884,13.06,73454.8,-4.21,-5.39,-5.31,0,*57
1506046075.39,48885,13.06,73452.5,-4.21,-5.39,-5.39,0,*5E
1506046076.59,48886,13.06,73454.8,-4.21,-5.39,-5.39,0,*5D
1506046077.82,48887,13.06,73452.5,-4.23,-5.39,-5.39,0,*5E
1506046079.02,48888,13.06,73452.3,-4.21,-5.39,-5.39,0,*53
1506046080.22,48889,13.06,73452.0,-4.21,-5.43,-5.43,0,*52
1506046081.43,48890,13.06,73456.3,-4.21,-5.39,-5.51,0,*54
1506046082.66,48891,13.06,73456.3,-4.23,-5.43,-5.51,0,*5A
1506046083.88,48892,13.06,73452.8,-4.23,-5.43,-5.43,0,*5A
1506046085.1,48893,13.06,73454.5,-4.23,-5.43,-5.43,0,*5B
1506046086.3,48894,13.06,73458.8,-4.21,-5.51,-5.43,0,*5D
1506046087.53,48895,13.06,73454.0,-4.23,-5.51,-5.43,0,*5E
1506046088.76,48896,13.06,73454.8,-4.23,-5.43,-5.51,0,*5D
1506046089.99,48897,13.06,73452.8,-4.23,-5.51,-5.51,0,*5F
1506046091.21,48898,13.06,73456.3,-4.21,-5.55,-5.51,0,*56
1506046092.44,48899,13.06,73454.5,-4.23,-5.51,-5.55,0,*55
1506046093.68,48900,13.06,73456.8,-4.23,-5.55,-5.55,0,*50
1506046094.92,48901,13.06,73454.0,-4.23,-5.55,-5.55,0,*51
1506046096.15,48902,13.06,73452.5,-4.23,-5.55,-5.51,0,*56
1506046097.39,48903,13.06,73458.5,-4.23,-5.51,-5.55,0,*57
1506046098.6,48904,13.06,73458.3,-4.21,-5.51,-5.51,0,*56
1506046099.84,48905,13.06,73452.8,-4.23,-5.55,-5.55,0,*55
1506046101.07,48906,13.06,73456.5,-4.23,-5.55,-5.51,0,*52
1506046102.31,48907,13.06,73454.0,-4.23,-5.55,-5.51,0,*53
1506046103.54,48908,13.06,73454.8,-4.23,-5.55,-5.51,0,*5C
1506046104.78,48909,13.06,73454.0,-4.23,-5.55,-5.55,0,*59
1506046106.01,48910,13.06,73452.3,-4.23,-5.43,-5.51,0,*52
1506046107.23,48911,13.06,73454.5,-4.23,-5.43,-5.43,0,*50
1506046108.44,48912,13.06,73450.0,-4.25,-5.47,-5.55,0,*56
1506046109.66,48913,13.06,73454.5,-4.23,-5.43,-5.43,0,*52
1506046110.86,48914,13.06,73450.8,-4.25,-5.35,-5.43,0,*52
1506046112.06,48915,13.06,73452.3,-4.25,-5.43,-5.43,0,*52
1506046113.26,48916,13.06,73454.0,-4.25,-5.35,-5.35,0,*51
1506046114.51,48917,13.06,73450.8,-4.23,-5.31,-5.39,0,*5E